This is the latest recevied weather packets stored in our database for station/object K5UTC. If no packets are shown the sender has not sent any weather packets the latest 10 day(s).
| Time | Temp. | Humidity | Pressure | Rain* | Wind** | Luminosity | Snow |
|---|---|---|---|---|---|---|---|
| 1778153511 | 13.89° C | 98% | 1012.2 hPa | 0 mm | - | 25 W/m² | - |
| 1778153209 | 13.89° C | 98% | 1011.9 hPa | 0 mm | - | 26 W/m² | - |
| 1778152905 | 13.89° C | 98% | 1011.8 hPa | 0 mm | - | 19 W/m² | - |
| 1778152603 | 13.89° C | 98% | 1011.7 hPa | 0 mm | - | 13 W/m² | - |
| 1778152299 | 13.89° C | 98% | 1011.7 hPa | 0 mm | - | 11 W/m² | - |
| 1778151995 | 13.89° C | 98% | 1011.9 hPa | 0 mm | - | 8 W/m² | - |
| 1778151692 | 13.89° C | 98% | 1012 hPa | 0 mm | - | 5 W/m² | - |
| 1778151389 | 13.89° C | 98% | 1011.7 hPa | 0 mm | - | 3 W/m² | - |
| 1778151085 | 13.89° C | 98% | 1011.6 hPa | 0 mm | - | 1 W/m² | - |
| 1778150783 | 13.89° C | 98% | 1011.7 hPa | 0 mm | - | 1 W/m² | - |
| 1778150479 | 13.89° C | 98% | 1011.9 hPa | 0 mm | - | 0 W/m² | - |
| 1778150175 | 13.89° C | 98% | 1011.8 hPa | 0 mm | - | 0 W/m² | - |
| 1778149872 | 13.89° C | 98% | 1011.3 hPa | 0 mm | - | 0 W/m² | - |
| 1778149568 | 13.89° C | 98% | 1011.4 hPa | 0 mm | - | 0 W/m² | - |
| 1778149265 | 13.89° C | 98% | 1011.3 hPa | 0 mm | - | 0 W/m² | - |
| 1778148961 | 13.89° C | 98% | 1011.5 hPa | 0 mm | - | 0 W/m² | - |
| 1778148657 | 13.89° C | 98% | 1011.1 hPa | 0 mm | - | 0 W/m² | - |
| 1778148354 | 13.89° C | 98% | 1011.3 hPa | 0 mm | - | 0 W/m² | - |
| 1778148052 | 13.89° C | 98% | 1011.5 hPa | 0 mm | - | 0 W/m² | - |
| 1778147750 | 13.89° C | 98% | 1011.6 hPa | 0 mm | - | 0 W/m² | - |
| 1778147446 | 13.89° C | 98% | 1011.6 hPa | 0 mm | - | 0 W/m² | - |
| 1778147142 | 13.89° C | 98% | 1011.6 hPa | 0 mm | - | 0 W/m² | - |
| 1778146840 | 13.89° C | 98% | 1011.3 hPa | 0 mm | - | 0 W/m² | - |
| 1778146537 | 13.89° C | 98% | 1011.5 hPa | 1.27 mm | - | 0 W/m² | - |
| 1778146236 | 13.89° C | 98% | 1011.6 hPa | 1.27 mm | - | 0 W/m² | - |
* Rain latest hour (hover to see other rain measurements)
** Current wind speed in m/s (hover to see current wind gust speed)